Precipitable_Water
0.99 0.95 0.93 0.91 0.89 0.86 0.83 0.81 0.80 0.77 0.74 0.71 0.68 0.68 0.68 0.68 0.67 0.66 0.66 0.66 0.66 0.65 0.64 0.64 0.62 0.61 0.61 0.61 0.60 0.58 0.54 0.52 0.53 0.52 0.51 0.50 0.51 0.52 0.50 0.48 0.47 0.46 0.45 0.43 0.42 0.41 0.40 0.39 0.38 0.36 0.36 0.37
0.96 0.94 0.92 0.90 0.87 0.85 0.83 0.81 0.79 0.77 0.74 0.71 0.68 0.65 0.64 0.63 0.62 0.62 0.63 0.62 0.62 0.60 0.60 0.59 0.57 0.57 0.56 0.56 0.56 0.53 0.52 0.50 0.48 0.47 0.45 0.45 0.46 0.46 0.45 0.43 0.42 0.41 0.40 0.38 0.37 0.36 0.36 0.35 0.34 0.33 0.34 0.35
0.95 0.92 0.90 0.89 0.87 0.85 0.83 0.81 0.79 0.78 0.76 0.72 0.67 0.63 0.60 0.59 0.59 0.59 0.60 0.60 0.59 0.57 0.56 0.56 0.55 0.54 0.53 0.52 0.52 0.50 0.50 0.48 0.45 0.42 0.40 0.39 0.39 0.40 0.40 0.38 0.36 0.36 0.35 0.33 0.32 0.30 0.29 0.28 0.28 0.27 0.28 0.30
0.94 0.93 0.90 0.88 0.86 0.85 0.84 0.82 0.80 0.78 0.75 0.70 0.63 0.58 0.56 0.55 0.55 0.54 0.54 0.55 0.54 0.52 0.50 0.50 0.50 0.48 0.48 0.48 0.48 0.46 0.46 0.45 0.42 0.39 0.36 0.34 0.33 0.33 0.34 0.33 0.31 0.30 0.29 0.28 0.26 0.24 0.23 0.22 0.21 0.21 0.23 0.24
0.91 0.90 0.87 0.84 0.82 0.80 0.79 0.77 0.75 0.73 0.70 0.65 0.59 0.55 0.53 0.52 0.50 0.49 0.48 0.47 0.47 0.45 0.44 0.45 0.47 0.45 0.43 0.43 0.42 0.43 0.42 0.41 0.39 0.36 0.33 0.30 0.28 0.26 0.25 0.25 0.25 0.25 0.25 0.23 0.22 0.20 0.19 0.18 0.17 0.18 0.19 0.20
0.88 0.86 0.83 0.81 0.79 0.77 0.75 0.73 0.72 0.70 0.66 0.61 0.57 0.52 0.50 0.48 0.46 0.44 0.41 0.40 0.39 0.38 0.38 0.39 0.40 0.40 0.39 0.39 0.38 0.38 0.38 0.38 0.37 0.33 0.30 0.27 0.24 0.22 0.20 0.18 0.17 0.18 0.20 0.20 0.19 0.18 0.17 0.16 0.16 0.16 0.17 0.17
0.84 0.83 0.80 0.78 0.77 0.76 0.75 0.71 0.69 0.66 0.62 0.59 0.55 0.49 0.46 0.44 0.41 0.37 0.35 0.34 0.34 0.34 0.34 0.35 0.35 0.35 0.35 0.35 0.34 0.33 0.33 0.33 0.31 0.29 0.26 0.24 0.22 0.20 0.17 0.16 0.16 0.15 0.15 0.15 0.16 0.15 0.15 0.15 0.15 0.15 0.15 0.15
0.81 0.80 0.78 0.76 0.75 0.75 0.73 0.70 0.66 0.63 0.60 0.56 0.51 0.46 0.43 0.40 0.37 0.34 0.33 0.33 0.33 0.33 0.32 0.32 0.32 0.31 0.29 0.28 0.27 0.26 0.25 0.26 0.26 0.25 0.22 0.19 0.17 0.16 0.16 0.15 0.15 0.14 0.14 0.14 0.14 0.14 0.14 0.14 0.13 0.13 0.13 0.13
0.78 0.78 0.77 0.76 0.75 0.73 0.71 0.68 0.65 0.62 0.59 0.54 0.49 0.44 0.41 0.38 0.35 0.33 0.32 0.32 0.31 0.30 0.29 0.27 0.25 0.24 0.22 0.21 0.20 0.20 0.18 0.18 0.18 0.17 0.15 0.15 0.15 0.15 0.15 0.14 0.14 0.13 0.13 0.13 0.13 0.13 0.13 0.13 0.13 0.13 0.13 0.13
0.78 0.77 0.74 0.73 0.72 0.71 0.69 0.66 0.64 0.61 0.57 0.52 0.46 0.41 0.38 0.35 0.33 0.31 0.31 0.30 0.28 0.27 0.26 0.24 0.22 0.21 0.20 0.18 0.17 0.17 0.15 0.15 0.15 0.15 0.15 0.14 0.14 0.14 0.14 0.14 0.14 0.14 0.13 0.12 0.12 0.13 0.13 0.12 0.12 0.12 0.12 0.12
0.78 0.76 0.75 0.74 0.72 0.68 0.66 0.64 0.61 0.59 0.56 0.50 0.44 0.40 0.37 0.33 0.31 0.29 0.28 0.27 0.25 0.23 0.23 0.21 0.20 0.19 0.18 0.17 0.16 0.16 0.14 0.14 0.14 0.14 0.14 0.14 0.14 0.14 0.14 0.14 0.14 0.13 0.13 0.13 0.12 0.12 0.12 0.12 0.12 0.12 0.12 0.12
0.78 0.77 0.75 0.73 0.70 0.67 0.64 0.62 0.59 0.57 0.53 0.48 0.43 0.39 0.36 0.33 0.30 0.28 0.26 0.25 0.23 0.22 0.21 0.20 0.19 0.18 0.17 0.16 0.15 0.15 0.14 0.13 0.14 0.14 0.14 0.13 0.13 0.13 0.13 0.13 0.13 0.13 0.13 0.12 0.12 0.12 0.12 0.12 0.12 0.12 0.12 0.12
0.78 0.76 0.74 0.71 0.67 0.63 0.61 0.57 0.56 0.54 0.51 0.45 0.41 0.38 0.35 0.32 0.28 0.27 0.25 0.23 0.22 0.21 0.20 0.19 0.18 0.17 0.16 0.15 0.14 0.14 0.14 0.13 0.13 0.13 0.13 0.13 0.12 0.13 0.13 0.13 0.12 0.13 0.12 0.12 0.12 0.12 0.12 0.12 0.12 0.12 0.12 0.12
0.73 0.71 0.68 0.66 0.63 0.61 0.58 0.54 0.53 0.51 0.47 0.43 0.39 0.35 0.33 0.31 0.28 0.25 0.24 0.22 0.21 0.20 0.19 0.18 0.17 0.16 0.16 0.15 0.14 0.14 0.13 0.13 0.12 0.12 0.12 0.12 0.12 0.12 0.12 0.12 0.13 0.12 0.12 0.12 0.12 0.11 0.11 0.11 0.12 0.12 0.12 0.13
0.70 0.68 0.65 0.63 0.62 0.59 0.55 0.52 0.49 0.46 0.43 0.40 0.37 0.34 0.33 0.30 0.28 0.25 0.24 0.22 0.21 0.19 0.18 0.17 0.16 0.16 0.16 0.15 0.14 0.13 0.13 0.13 0.12 0.12 0.12 0.12 0.12 0.12 0.12 0.12 0.12 0.12 0.12 0.11 0.11 0.11 0.11 0.11 0.12 0.12 0.13 0.13
0.67 0.64 0.63 0.61 0.60 0.56 0.54 0.50 0.46 0.43 0.41 0.38 0.35 0.34 0.31 0.29 0.27 0.25 0.23 0.22 0.21 0.19 0.18 0.17 0.16 0.16 0.15 0.15 0.14 0.13 0.13 0.12 0.12 0.12 0.12 0.12 0.12 0.12 0.12 0.12 0.12 0.12 0.11 0.11 0.11 0.11 0.11 0.11 0.12 0.12 0.13 0.13
0.65 0.62 0.59 0.57 0.55 0.54 0.52 0.47 0.44 0.41 0.38 0.37 0.35 0.33 0.31 0.29 0.27 0.26 0.24 0.22 0.21 0.20 0.19 0.17 0.16 0.16 0.16 0.15 0.14 0.13 0.12 0.12 0.12 0.12 0.11 0.12 0.12 0.12 0.12 0.12 0.12 0.12 0.12 0.11 0.11 0.11 0.11 0.11 0.12 0.12 0.12 0.13
0.61 0.59 0.57 0.56 0.54 0.52 0.49 0.45 0.41 0.39 0.38 0.36 0.34 0.32 0.31 0.29 0.28 0.26 0.25 0.23 0.22 0.21 0.19 0.18 0.17 0.16 0.16 0.15 0.14 0.13 0.12 0.12 0.11 0.11 0.11 0.11 0.11 0.12 0.12 0.11 0.12 0.11 0.11 0.11 0.12 0.11 0.11 0.11 0.12 0.12 0.12 0.12
0.59 0.58 0.56 0.54 0.52 0.50 0.47 0.44 0.41 0.39 0.38 0.36 0.34 0.33 0.30 0.29 0.28 0.27 0.25 0.24 0.22 0.21 0.20 0.18 0.17 0.16 0.16 0.16 0.15 0.13 0.12 0.11 0.11 0.11 0.11 0.12 0.11 0.12 0.12 0.12 0.12 0.11 0.11 0.11 0.11 0.11 0.11 0.11 0.12 0.12 0.12 0.13
0.59 0.58 0.56 0.54 0.52 0.49 0.47 0.43 0.40 0.38 0.37 0.36 0.35 0.33 0.30 0.29 0.28 0.27 0.26 0.24 0.23 0.21 0.20 0.19 0.18 0.17 0.17 0.16 0.15 0.13 0.12 0.12 0.11 0.12 0.12 0.12 0.12 0.11 0.11 0.12 0.11 0.12 0.11 0.11 0.11 0.11 0.12 0.12 0.12 0.12 0.12 0.12
0.57 0.57 0.54 0.52 0.49 0.47 0.46 0.43 0.40 0.39 0.38 0.37 0.35 0.33 0.31 0.29 0.28 0.28 0.26 0.25 0.24 0.22 0.21 0.20 0.19 0.18 0.17 0.17 0.15 0.14 0.13 0.12 0.12 0.12 0.12 0.12 0.12 0.12 0.11 0.12 0.12 0.12 0.12 0.12 0.12 0.12 0.12 0.12 0.12 0.12 0.12 0.13
0.55 0.54 0.52 0.50 0.48 0.48 0.46 0.44 0.43 0.40 0.39 0.37 0.35 0.34 0.31 0.30 0.29 0.28 0.27 0.26 0.25 0.23 0.22 0.21 0.20 0.19 0.18 0.17 0.16 0.14 0.13 0.13 0.13 0.13 0.12 0.12 0.13 0.12 0.12 0.12 0.12 0.12 0.12 0.12 0.12 0.12 0.12 0.12 0.12 0.12 0.12 0.13
0.51 0.50 0.48 0.47 0.46 0.46 0.45 0.43 0.42 0.40 0.38 0.36 0.35 0.34 0.32 0.31 0.30 0.29 0.27 0.26 0.25 0.23 0.22 0.21 0.19 0.19 0.18 0.17 0.16 0.15 0.14 0.13 0.13 0.13 0.13 0.12 0.12 0.13 0.13 0.12 0.12 0.12 0.13 0.12 0.12 0.12 0.12 0.12 0.12 0.12 0.13 0.13
0.46 0.45 0.42 0.41 0.41 0.41 0.40 0.40 0.39 0.38 0.36 0.35 0.34 0.33 0.33 0.31 0.30 0.29 0.28 0.27 0.26 0.24 0.22 0.21 0.20 0.19 0.19 0.18 0.17 0.16 0.14 0.14 0.13 0.13 0.13 0.13 0.12 0.12 0.13 0.13 0.13 0.13 0.13 0.13 0.13 0.13 0.13 0.13 0.13 0.13 0.13 0.13
0.41 0.39 0.38 0.38 0.37 0.36 0.38 0.38 0.37 0.36 0.35 0.34 0.33 0.33 0.32 0.31 0.30 0.30 0.29 0.28 0.26 0.24 0.23 0.22 0.21 0.20 0.19 0.19 0.18 0.17 0.16 0.15 0.14 0.14 0.13 0.13 0.13 0.12 0.12 0.13 0.14 0.14 0.14 0.13 0.12 0.13 0.13 0.13 0.14 0.14 0.14 0.13
0.40 0.39 0.37 0.36 0.35 0.36 0.37 0.37 0.35 0.34 0.34 0.33 0.33 0.33 0.33 0.32 0.31 0.31 0.30 0.29 0.28 0.26 0.25 0.23 0.22 0.21 0.20 0.20 0.19 0.18 0.17 0.16 0.15 0.15 0.14 0.13 0.13 0.14 0.13 0.13 0.14 0.14 0.14 0.13 0.13 0.12 0.13 0.13 0.14 0.15 0.14 0.14
0.38 0.39 0.39 0.39 0.38 0.38 0.38 0.40 0.40 0.40 0.39 0.38 0.35 0.34 0.33 0.33 0.33 0.32 0.31 0.30 0.28 0.27 0.26 0.25 0.23 0.22 0.21 0.20 0.20 0.18 0.17 0.16 0.15 0.15 0.14 0.14 0.13 0.13 0.14 0.14 0.15 0.15 0.15 0.14 0.14 0.14 0.14 0.13 0.13 0.14 0.14 0.15
0.40 0.41 0.41 0.42 0.42 0.42 0.42 0.40 0.42 0.42 0.41 0.38 0.36 0.33 0.34 0.33 0.32 0.31 0.30 0.29 0.29 0.28 0.27 0.26 0.25 0.24 0.22 0.21 0.20 0.19 0.18 0.17 0.16 0.16 0.15 0.15 0.14 0.14 0.14 0.14 0.15 0.16 0.16 0.16 0.15 0.14 0.14 0.14 0.14 0.13 0.14 0.14
0.39 0.40 0.40 0.40 0.41 0.41 0.40 0.40 0.39 0.38 0.36 0.35 0.34 0.34 0.32 0.30 0.30 0.30 0.29 0.29 0.29 0.28 0.27 0.27 0.26 0.24 0.23 0.22 0.21 0.21 0.19 0.18 0.17 0.17 0.17 0.16 0.15 0.15 0.15 0.15 0.15 0.17 0.17 0.17 0.18 0.17 0.15 0.14 0.14 0.14 0.15 0.16
0.39 0.38 0.37 0.37 0.35 0.34 0.34 0.33 0.33 0.32 0.31 0.31 0.30 0.29 0.30 0.31 0.31 0.30 0.30 0.29 0.28 0.28 0.27 0.26 0.26 0.25 0.24 0.23 0.22 0.21 0.20 0.20 0.19 0.18 0.17 0.17 0.16 0.16 0.16 0.16 0.16 0.16 0.18 0.18 0.18 0.19 0.19 0.18 0.16 0.16 0.16 0.16
0.37 0.37 0.37 0.36 0.35 0.35 0.34 0.33 0.33 0.35 0.36 0.36 0.35 0.35 0.33 0.32 0.31 0.31 0.30 0.29 0.29 0.28 0.28 0.28 0.27 0.26 0.25 0.24 0.24 0.23 0.22 0.21 0.20 0.19 0.19 0.19 0.18 0.17 0.17 0.16 0.16 0.16 0.17 0.18 0.18 0.18 0.19 0.19 0.18 0.18 0.17 0.16
Wind_Speed
21 21 20 20 20 19 19 19 19 19 19 19 20 20 20 20 20 20 20 19 19 19 19 19 20 20 20 20 20 20 19 19 20 20 20 20 20 20 20 20 20 20 20 20 20 20 20 20 20 20 20 20
22 21 21 21 21 20 20 20 20 20 20 20 21 21 21 21 21 21 21 21 21 21 21 21 21 21 21 21 21 20 20 20 21 21 21 21 21 21 21 21 21 21 21 21 21 21 21 21 21 21 21 21
22 22 22 21 21 21 21 21 21 21 21 21 21 22 22 22 22 21 21 21 22 22 22 22 22 22 22 22 22 21 21 21 21 22 22 21 21 21 21 21 21 21 21 21 21 21 21 21 21 22 22 22
22 22 22 22 22 22 22 22 22 22 22 22 22 23 22 22 22 22 22 22 22 22 23 23 22 22 22 22 22 22 22 22 22 22 22 21 21 21 21 21 21 21 21 21 21 21 21 21 21 21 22 22
24 24 24 23 23 23 23 23 23 23 23 23 23 23 23 23 23 23 23 23 24 23 23 23 23 23 23 23 22 22 22 22 22 22 21 21 21 21 21 21 21 21 21 21 21 21 21 21 21 22 22 22
25 25 25 25 25 25 25 25 24 25 24 24 24 24 24 24 24 24 24 24 24 24 24 24 23 23 23 23 22 22 22 22 22 22 22 22 22 22 22 22 22 22 22 22 22 22 22 22 22 22 22 23
27 27 26 26 26 26 26 26 26 25 25 25 25 25 24 24 24 24 24 24 24 24 24 24 24 23 23 23 23 23 23 23 23 22 22 22 22 22 22 22 22 22 22 22 23 23 23 23 23 23 23 23
28 28 27 27 27 27 26 26 26 26 26 25 25 25 25 25 25 25 25 25 25 25 25 24 24 24 23 23 23 23 23 23 23 23 23 23 23 23 23 23 23 23 23 23 23 23 23 24 24 24 24 24
28 28 28 28 28 27 27 27 26 27 26 26 26 26 26 26 26 26 26 26 26 25 25 25 24 24 24 24 24 24 24 24 24 23 23 23 23 23 23 24 24 24 24 24 24 24 24 24 24 25 25 25
29 29 29 29 28 28 28 28 28 28 28 27 27 27 26 26 26 26 26 26 26 26 26 25 25 25 25 25 25 25 24 24 24 24 24 24 24 24 24 24 24 25 25 25 25 25 25 25 25 25 25 25
30 30 30 30 30 29 29 29 29 29 29 29 28 28 28 27 27 27 27 27 27 27 27 26 26 26 26 26 26 25 25 25 25 25 25 25 25 25 25 25 25 26 26 26 26 26 26 26 26 26 26 26
31 31 31 31 31 31 31 30 30 30 30 30 29 29 29 29 28 28 28 28 28 28 28 27 27 27 27 26 26 26 26 26 26 26 26 26 26 26 26 26 26 26 26 26 26 26 26 27 27 27 27 27
32 32 32 32 32 32 32 32 32 32 31 31 31 30 30 30 29 29 29 29 29 28 28 28 28 28 28 27 27 27 27 27 27 27 27 27 27 27 27 27 27 27 27 27 27 27 27 27 27 27 28 28
33 33 33 33 33 33 33 33 33 32 32 32 31 31 31 31 30 30 29 29 29 29 29 29 29 28 28 28 28 28 28 28 28 28 28 28 28 28 28 28 28 28 28 28 28 28 28 28 28 28 28 28
35 34 34 34 34 34 34 34 34 33 33 32 32 32 31 31 31 30 30 29 29 29 29 29 29 29 29 29 29 29 29 28 28 28 28 28 28 28 28 29 29 29 28 28 29 29 29 29 29 29 29 29
36 36 35 35 35 35 35 34 34 33 33 32 32 32 32 31 31 30 30 29 29 29 29 30 30 30 30 30 30 30 29 29 29 29 29 29 29 29 29 29 29 29 29 29 30 30 30 30 30 30 30 30
37 37 36 36 36 35 35 34 34 33 33 32 32 32 32 31 31 31 30 30 30 30 30 30 30 31 31 30 30 30 30 30 30 30 30 30 30 30 30 30 30 30 30 30 30 30 31 31 31 31 31 31
37 37 36 36 35 35 34 34 33 33 33 32 32 32 32 32 31 31 31 31 31 31 31 31 31 31 31 31 31 31 31 31 30 30 30 31 31 31 31 31 31 31 31 31 31 31 31 32 32 32 32 32
37 36 36 35 35 34 34 33 33 33 33 33 33 33 32 32 32 32 32 32 32 32 32 32 32 32 32 32 32 32 31 31 31 31 31 31 31 32 32 32 32 32 32 32 32 32 32 33 33 33 33 33
37 36 36 36 35 34 34 34 33 33 33 33 33 33 33 34 33 33 33 33 33 33 33 33 33 33 33 33 33 32 32 32 32 32 32 32 33 32 33 33 33 33 33 33 33 33 33 33 33 34 34 34
37 37 37 36 35 35 34 34 34 34 34 34 34 34 34 34 34 34 34 34 34 34 34 34 34 34 34 34 33 33 33 33 33 33 33 33 33 33 33 33 33 33 33 33 33 34 34 34 34 34 34 34
37 37 37 36 36 35 35 35 35 35 35 35 35 35 35 35 35 35 35 35 35 35 35 35 35 35 35 34 34 34 34 34 33 34 34 34 34 33 33 33 33 33 33 34 34 34 34 34 34 35 35 35
37 37 36 36 35 35 35 35 35 36 36 36 36 36 36 36 36 36 36 36 36 36 36 36 35 35 35 35 34 34 34 34 34 34 34 34 33 33 33 33 33 33 33 33 34 34 34 34 34 35 35 35
36 36 36 36 36 36 36 36 36 37 37 37 37 37 37 37 37 37 37 37 37 36 36 36 35 35 35 34 34 34 34 34 34 34 33 33 33 33 33 33 33 33 32 33 33 33 34 34 34 34 34 35
36 36 36 36 36 36 36 37 37 37 37 37 38 38 38 38 37 37 37 37 37 37 36 36 35 35 35 35 34 34 34 34 34 34 33 33 33 33 33 33 33 32 32 32 33 33 33 33 34 34 34 34
36 36 36 36 36 36 37 37 37 37 37 37 38 38 38 37 37 37 37 37 37 37 36 36 35 35 35 35 35 35 35 35 34 34 34 33 33 33 34 34 33 33 33 33 33 32 32 33 34 34 34 34
36 36 36 36 36 36 36 37 37 37 37 37 38 38 38 38 38 38 38 38 38 37 37 37 36 36 36 36 36 36 36 35 35 35 35 34 34 34 34 34 34 34 34 33 33 32 33 33 34 34 35 35
37 37 37 37 36 36 36 36 37 37 37 37 37 37 38 38 39 39 39 38 38 38 38 38 37 37 37 37 37 37 37 37 36 36 36 36 36 36 36 36 36 36 35 35 34 33 33 34 34 34 35 35
37 36 36 36 35 35 36 36 36 36 36 36 37 38 38 39 39 39 39 39 39 39 39 39 39 39 39 39 39 38 38 38 38 38 38 37 38 38 38 37 37 37 37 37 37 35 34 34 35 35 35 35
37 37 37 36 36 36 36 36 37 37 37 38 38 39 39 40 40 40 40 40 40 40 40 40 40 40 40 40 40 40 40 39 39 39 39 39 39 39 39 39 38 39 38 39 39 38 37 37 36 37 36 35
37 37 37 38 38 38 38 38 38 38 38 39 39 40 40 40 41 41 41 42 42 42 42 42 42 42 42 42 42 42 41 41 41 41 41 41 41 41 41 41 41 40 40 40 40 41 40 40 39 38 38 38
Wind_Direction
231 233 234 235 237 238 240 242 245 247 248 249 249 249 250 251 252 254 254 255 256 258 259 260 261 262 263 263 264 264 264 264 264 264 265 265 266 266 267 267 267 267 267 267 267 267 267 267 267 268 268 268
235 235 236 237 239 240 242 244 247 248 249 250 250 250 251 252 253 255 256 256 258 260 261 262 262 262 263 263 264 264 264 264 264 264 264 265 265 266 266 267 267 267 267 267 267 267 267 267 267 267 268 268
238 239 240 241 242 243 244 246 248 249 251 252 252 251 252 253 254 255 256 257 258 260 261 262 262 262 262 262 263 263 263 264 264 264 264 265 265 265 266 266 267 267 267 267 267 267 268 268 268 268 268 268
240 241 242 244 245 246 247 248 249 250 252 253 252 252 253 254 256 256 257 258 259 260 261 261 261 261 262 262 262 262 263 263 263 264 264 264 265 265 266 267 267 267 267 268 268 268 268 269 269 269 269 269
241 241 243 244 246 247 248 249 250 251 252 253 253 253 254 255 257 258 258 259 259 260 260 260 261 261 261 261 261 262 262 262 263 264 264 265 265 266 267 267 268 268 268 268 269 269 269 269 269 270 269 269
242 243 244 245 247 247 249 249 250 252 253 253 253 253 254 256 257 258 259 259 259 260 260 260 261 260 260 261 261 261 262 263 263 264 265 265 266 266 267 267 268 268 269 269 269 269 269 270 270 270 270 270
244 245 246 247 247 248 249 250 251 253 254 254 255 255 256 257 258 259 259 259 259 259 260 260 260 260 260 261 262 262 263 263 264 265 265 266 266 267 267 267 268 269 269 269 269 269 270 270 270 270 270 270
245 245 246 247 248 249 250 251 252 254 255 256 256 256 257 258 258 259 259 259 259 259 258 258 259 260 260 261 262 262 263 264 264 265 266 266 267 267 267 267 268 269 269 269 269 270 270 270 271 271 271 271
245 246 247 248 248 250 250 251 253 254 255 255 256 256 257 258 258 258 258 259 258 257 257 257 258 259 260 261 261 262 262 264 264 265 265 266 266 267 267 267 268 268 269 269 269 270 270 270 270 270 271 270
246 247 248 249 249 250 251 252 253 254 255 255 255 256 256 257 258 258 258 258 257 257 256 257 257 258 259 260 261 262 263 263 264 264 265 266 266 267 267 268 268 268 269 269 269 270 270 270 270 270 270 270
247 248 249 250 250 251 252 252 253 254 255 255 255 256 256 257 258 258 258 257 257 257 257 257 257 258 259 260 261 262 263 264 264 265 265 266 267 267 268 268 268 268 269 269 269 270 270 270 270 270 270 270
249 249 250 251 251 252 252 253 254 255 255 256 256 256 256 257 257 258 258 257 256 256 256 257 257 258 260 261 261 262 263 264 265 266 266 267 267 268 268 269 269 269 269 270 270 270 270 270 270 270 270 270
250 250 251 251 252 252 253 253 254 255 255 256 256 256 256 257 257 257 257 257 256 256 256 257 257 258 260 261 262 263 264 265 265 266 267 267 268 268 269 269 269 269 269 270 270 270 270 270 270 270 270 270
250 250 251 252 252 253 253 254 254 255 255 255 255 256 256 256 256 256 257 257 256 256 256 257 257 258 259 261 262 263 264 265 265 266 266 267 267 268 268 269 269 269 269 270 270 270 270 271 270 270 270 270
250 251 252 253 253 253 253 253 254 254 254 254 254 254 254 255 255 256 256 256 256 256 257 257 258 259 260 261 263 263 264 264 265 265 266 267 267 267 268 269 269 269 269 270 270 270 271 271 270 270 270 270
251 252 252 253 253 253 253 252 252 253 253 253 253 253 253 254 254 255 255 255 256 257 257 258 259 260 261 262 262 263 263 264 265 265 266 266 267 267 267 268 269 269 269 270 270 270 271 271 270 270 270 270
251 251 251 252 252 252 252 251 251 251 251 251 251 252 252 253 253 254 255 256 256 257 258 259 259 260 261 261 262 262 263 264 264 265 266 266 266 267 267 268 268 268 269 269 269 270 270 270 270 270 270 270
250 250 250 251 251 251 250 250 250 250 250 250 251 251 252 252 253 254 255 256 257 257 258 259 260 260 261 261 262 262 263 263 264 265 265 266 266 267 267 268 268 268 269 269 269 270 270 270 270 270 270 270
249 249 249 250 250 249 249 249 249 249 249 250 251 251 252 253 253 254 255 256 257 257 258 259 260 261 261 261 261 262 263 263 264 264 265 265 266 267 267 267 268 268 268 269 269 270 270 271 271 270 270 270
248 248 249 249 249 249 249 249 249 249 249 250 251 252 253 253 254 254 255 256 257 258 259 260 261 261 261 261 261 262 262 263 264 264 265 265 266 267 267 267 268 268 268 269 270 270 271 271 271 270 270 270
248 248 249 249 249 249 249 249 249 249 250 251 252 252 253 254 254 255 255 256 257 258 259 260 261 261 260 260 261 262 263 263 264 264 265 266 266 266 267 267 268 268 269 269 270 270 271 271 271 271 270 270
248 248 249 249 249 249 249 249 250 250 251 252 253 253 254 254 255 255 256 256 257 258 259 260 261 261 260 260 261 262 263 264 264 264 265 266 266 266 267 268 268 268 269 269 270 270 271 271 271 271 271 270
248 249 249 249 249 249 250 250 250 251 251 253 253 254 254 254 255 255 256 256 257 258 259 260 261 261 260 260 261 262 263 264 264 264 265 266 266 267 267 268 268 269 269 270 270 270 271 271 271 271 271 270
248 249 249 249 249 250 250 251 251 252 252 253 254 254 254 254 255 256 256 256 257 258 259 260 260 260 260 260 261 262 263 264 264 265 265 266 266 266 267 267 268 268 269 270 270 271 271 271 271 271 271 270
248 248 249 249 250 250 251 251 252 252 253 253 253 253 254 254 254 255 255 256 256 257 258 259 260 260 260 260 261 262 263 263 264 264 265 265 265 265 266 266 267 267 268 269 270 271 271 272 272 271 271 271
248 248 249 250 250 251 251 251 252 252 253 253 253 253 254 254 254 254 255 255 256 257 258 259 260 260 260 260 261 262 263 263 264 264 264 264 265 265 265 266 267 266 267 269 269 270 272 272 272 272 271 271
248 249 249 250 251 251 252 252 252 253 253 253 254 254 254 254 255 255 256 256 257 258 259 259 260 260 260 261 261 262 263 263 264 264 264 264 264 265 265 266 266 266 266 268 269 271 272 273 273 273 272 271
249 249 250 250 251 252 253 254 254 254 254 254 254 255 255 255 255 256 256 257 257 258 259 259 260 261 261 261 261 262 263 264 264 264 264 264 264 264 265 266 266 266 266 267 269 271 272 273 273 273 273 272
249 250 250 251 252 253 254 254 254 254 255 255 255 255 256 256 256 256 257 257 257 258 259 259 260 260 261 261 262 263 264 264 264 264 264 264 264 264 265 266 266 266 266 266 267 269 271 273 273 273 273 273
249 250 250 251 252 253 253 254 255 255 255 255 255 256 256 256 256 256 256 257 257 258 258 259 259 260 261 262 262 262 264 264 264 265 264 264 264 265 265 266 266 266 267 267 267 268 270 272 273 273 273 273
250 251 251 252 253 254 255 256 257 257 257 257 257 257 257 257 257 257 257 258 258 258 259 260 260 261 261 262 262 263 263 264 264 265 265 264 265 265 265 266 266 267 267 267 268 268 269 271 272 273 273 273